Regional Weather Roundup
Issued by NWS Little Rock, AR

Home | Current Version | Previous Version | Text Only | Print | Product List | Glossary Off
Versions: 1 2 3 4 5 6 7 8 9 10 11 12 13 14 15 16 17 18 19 20 21 22 23 24 25 26 27 28 29 30 31 32 33 34 35 36 37 38 39 40 41 42 43 44 45 46 47 48 49 50

000
ASUS44 KLZK 010105
RWRLZK

WEATHER ROUNDUP FOR ARKANSAS
NATIONAL WEATHER SERVICE LITTLE ROCK AR
800 PM CDT TUE SEP 30 2014

NOTE: "FAIR" INDICATES FEW OR NO CLOUDS BELOW 12,000 FEET WITH NO
SIGNIFICANT WEATHER AND/OR OBSTRUCTIONS TO VISIBILITY.

ARZ001-003-010-029-010200-
NORTHWEST ARKANSAS

CITY           SKY/WX    TMP DP  RH WIND       PRES   REMARKS
FAYETTEVILLE   FAIR      69  61  75 E5        29.86F
FORT SMITH     FAIR      75  63  66 CALM      29.82S
HARRISON       FAIR      69  59  70 S3        29.88F
BENTONVILLE    FAIR      72  59  64 SE7       29.87S
ROGERS         FAIR      72  60  66 SE8       29.87F
SILOAM SPGS    FAIR      72  57  60 SE7       29.86S
HIGHFILL       FAIR      73  60  63 SE9       29.85F
SPRINGDALE     CLEAR     73  61  64 S12       29.88F
$$

ARZ004-005-016-010200-
NORTH CENTRAL ARKANSAS

CITY           SKY/WX    TMP DP  RH WIND       PRES   REMARKS
BATESVILLE     MOCLDY    75  52  43 CALM      29.87S
FLIPPIN        FAIR      72  54  53 CALM      29.87S
MTN HOME       FAIR      73  56  54 E6        29.87S
$$

ARZ040-041-010200-
WEST CENTRAL ARKANSAS

CITY           SKY/WX    TMP DP  RH WIND       PRES   REMARKS
MENA             N/A    N/A N/A N/A CALM      29.86S
MOUNT IDA      FAIR      70  66  87 CALM      29.84S
$$

ARZ009-017-025-026-028-010200-
NORTHEAST ARKANSAS

CITY           SKY/WX    TMP DP  RH WIND       PRES   REMARKS
CORNING          N/A     73  59  60 CALM      29.87S
JONESBORO      FAIR      73  60  63 E5        29.86S
NEWPORT        FAIR      75  59  57 SW3       29.87S
WALNUT RIDGE   FAIR      73  59  60 NE5       29.86S
BLYTHEVILLE    FAIR      74  61  63 E5        29.87S
$$

ARZ022-023-033-042-044-010200-
CENTRAL ARKANSAS

CITY           SKY/WX    TMP DP  RH WIND       PRES   REMARKS
LITTLE ROCK    MOCLDY    76  60  57 CALM      29.85S
N LITTLE ROCK  MOCLDY    76  60  58 CALM      29.85S
JACKSONVILLE   FAIR      72  62  71 CALM      29.85F
SEARCY         FAIR      69  59  70 CALM      29.86F
HOT SPRINGS    FAIR      74  61  63 E7        29.85S
RUSSELLVILLE   FAIR      69  64  84 CALM      29.84F
CLINTON        FAIR      70  64  83 CALM      29.87R
$$

ARZ036-010200-
EAST ARKANSAS

CITY           SKY/WX    TMP DP  RH WIND       PRES   REMARKS
WEST MEMPHIS   MOCLDY    72  64  76 CALM      29.85S
$$

ARZ050-053-066-070-073-010200-
SOUTHWEST ARKANSAS

CITY           SKY/WX    TMP DP  RH WIND       PRES   REMARKS
ARKADELPHIA    FAIR      72  70  93 CALM      29.84S
CAMDEN         PTCLDY    73  64  73 CALM      29.83R
TEXARKANA      MOCLDY    78  67  68 SE3       29.82R
EL DORADO      PTCLDY    75  67  76 E3        29.83R
DE QUEEN       PTCLDY    73  68  84 NE5       29.80S
$$

ARZ056-057-069-010200-
SOUTHEAST ARKANSAS

CITY           SKY/WX    TMP DP  RH WIND       PRES   REMARKS
PINE BLUFF     FAIR      75  61  61 N3        29.85S
STUTTGART      FAIR     N/A N/A N/A E7        29.86S
MONTICELLO     FAIR      73  63  70 CALM      29.84R

$$





USA.gov is the U.S. government's official web portal to all federal, state and local government web resources and services.